FW2736 Weather Reports


Display with metric or nautical units.
time (UTC)temp
F
wind
direction
speed
MPH
gust
MPH
rain 1hr
in
rain 24hr
in
rain mn
in
humidity
%
barometer
mb
20260506222316 82 7 11.0 0.0 0.00 0.00 0.00 30 1016.6
20260506221816 82 340 8.0 0.0 0.00 0.00 0.00 30 1016.6
20260506221315 81 337 5.0 0.0 0.00 0.00 0.00 31 1016.6
20260506220815 80 150 9.0 0.0 0.00 0.00 0.00 32 1016.6
20260506220315 80 149 9.0 0.0 0.00 0.00 0.00 33 1016.9
20260506215815 79 97 8.0 0.0 0.00 0.00 0.00 33 1016.9
20260506215316 80 103 7.0 0.0 0.00 0.00 0.00 33 1016.9
20260506214818 79 134 7.0 0.0 0.00 0.00 0.00 33 1017.3
20260506214315 80 138 7.0 0.0 0.00 0.00 0.00 33 1017.3
20260506213815 80 153 8.0 0.0 0.00 0.00 0.00 33 1017.3
20260506213314 80 158 8.0 0.0 0.00 0.00 0.00 34 1017.3
20260506212814 79 212 7.0 0.0 0.00 0.00 0.00 34 1017.3
20260506212315 79 117 7.0 0.0 0.00 0.00 0.00 33 1017.3
20260506211815 79 145 10.0 0.0 0.00 0.00 0.00 34 1017.3
20260506211314 80 109 11.0 0.0 0.00 0.00 0.00 33 1017.6
20260506210816 78 21 11.0 0.0 0.00 0.00 0.00 35 1017.6
20260506210313 79 122 6.0 0.0 0.00 0.00 0.00 34 1017.6
20260506205812 79 100 6.0 0.0 0.00 0.00 0.00 34 1017.6
20260506205313 78 112 8.0 0.0 0.00 0.00 0.00 35 1017.6
20260506204812 78 117 8.0 0.0 0.00 0.00 0.00 36 1017.6
20260506204317 77 159 9.0 0.0 0.00 0.00 0.00 36 1017.9
20260506203812 77 153 9.0 0.0 0.00 0.00 0.00 36 1017.9
20260506203314 78 42 7.0 0.0 0.00 0.00 0.00 35 1018.3
20260506202812 78 356 6.0 0.0 0.00 0.00 0.00 34 1018.3
20260506202312 77 147 7.0 0.0 0.00 0.00 0.00 36 1018.3
20260506201811 76 339 7.0 0.0 0.00 0.00 0.00 37 1018.3
20260506201314 77 84 7.0 0.0 0.00 0.00 0.00 36 1018.3
20260506200814 77 255 7.0 0.0 0.00 0.00 0.00 37 1018.3
20260506200314 76 20 12.0 0.0 0.00 0.00 0.00 37 1018.6
20260506195811 76 259 9.0 0.0 0.00 0.00 0.00 37 1018.6
20260506195312 75 40 8.0 0.0 0.00 0.00 0.00 39 1018.6
20260506194820 75 135 8.0 0.0 0.00 0.00 0.00 39 1018.6
20260506194313 76 36 6.0 0.0 0.00 0.00 0.00 40 1019.0
20260506193812 76 134 6.0 0.0 0.00 0.00 0.00 38 1019.0
20260506193310 77 112 6.0 0.0 0.00 0.00 0.00 38 1019.0
20260506192812 75 346 6.0 0.0 0.00 0.00 0.00 39 1019.0
20260506192313 75 59 7.0 0.0 0.00 0.00 0.00 40 1019.0
20260506191814 74 301 7.0 0.0 0.00 0.00 0.00 41 1019.3
20260506191314 74 19 6.0 0.0 0.00 0.00 0.00 41 1019.3
20260506190810 74 94 6.0 0.0 0.00 0.00 0.00 41 1019.3
20260506190309 73 107 6.0 0.0 0.00 0.00 0.00 43 1019.3
20260506185810 73 213 7.0 0.0 0.00 0.00 0.00 42 1019.3
20260506185311 74 133 5.0 0.0 0.00 0.00 0.00 41 1019.3
20260506184813 74 59 7.0 0.0 0.00 0.00 0.00 41 1019.3
20260506184313 74 352 7.0 0.0 0.00 0.00 0.00 42 1019.6
20260506183811 73 347 6.0 0.0 0.00 0.00 0.00 43 1019.6
20260506183313 72 132 1.0 0.0 0.00 0.00 0.00 43 1019.6
20260506182810 72 186 7.0 0.0 0.00 0.00 0.00 43 1019.6
20260506182310 72 76 7.0 0.0 0.00 0.00 0.00 43 1020.0
20260506181811 71 79 6.0 0.0 0.00 0.00 0.00 44 1020.0
20260506181312 71 66 6.0 0.0 0.00 0.00 0.00 44 1020.0
20260506180813 71 15 4.0 0.0 0.00 0.00 0.00 45 1020.0
20260506180310 70 130 6.0 0.0 0.00 0.00 0.00 47 1020.3
20260506175812 69 73 7.0 0.0 0.00 0.00 0.00 47 1020.3
20260506175309 69 96 7.0 0.0 0.00 0.00 0.00 48 1020.3
20260506174815 69 113 6.0 0.0 0.00 0.00 0.00 47 1020.3
20260506174312 69 16 6.0 0.0 0.00 0.00 0.00 47 1020.3
20260506173813 68 36 5.0 0.0 0.00 0.00 0.00 47 1020.3
20260506173314 68 118 5.0 0.0 0.00 0.00 0.00 48 1020.3
20260506172812 68 326 0.0 0.0 0.00 0.00 0.00 47 1020.3
20260506172325 68 340 0.0 0.0 0.00 0.00 0.00 47 1020.3
20260506171823 67 297 0.0 0.0 0.00 0.00 0.00 48 1020.3
20260506171322 67 355 0.0 0.0 0.00 0.00 0.00 46 1020.3
20260506170822 67 274 0.0 0.0 0.00 0.00 0.00 47 1020.3
20260506170321 67 36 5.0 0.0 0.00 0.00 0.00 47 1020.3
20260506165824 67 105 5.0 0.0 0.00 0.00 0.00 47 1020.3
20260506165321 66 160 6.0 0.0 0.00 0.00 0.00 48 1020.3
20260506164820 66 150 6.0 0.0 0.00 0.00 0.00 46 1020.3
20260506164322 66 69 5.0 0.0 0.00 0.00 0.00 47 1020.3
20260506163821 66 82 0.0 0.0 0.00 0.00 0.00 48 1020.3
20260506163321 65 140 0.0 0.0 0.00 0.00 0.00 48 1020.3
20260506162821 65 113 0.0 0.0 0.00 0.00 0.00 48 1020.3
20260506162321 65 144 0.0 0.0 0.00 0.00 0.00 48 1020.3
20260506161821 65 118 0.0 0.0 0.00 0.00 0.00 50 1020.3
20260506161319 65 140 0.0 0.0 0.00 0.00 0.00 55 1020.3
20260506160819 64 57 0.0 0.0 0.00 0.00 0.00 57 1020.3
20260506160319 63 166 4.0 0.0 0.00 0.00 0.00 59 1020.3
20260506155819 63 162 4.0 0.0 0.00 0.00 0.00 59 1020.3
20260506155319 63 38 4.0 0.0 0.00 0.00 0.00 59 1020.3
20260506154825 63 15 4.0 0.0 0.00 0.00 0.00 60 1020.3
20260506154321 62 0 4.0 0.0 0.00 0.00 0.00 61 1020.3
20260506153819 62 345 0.0 0.0 0.00 0.00 0.00 62 1020.3
20260506153318 61 35 0.0 0.0 0.00 0.00 0.00 63 1020.3
20260506152817 61 321 0.0 0.0 0.00 0.00 0.00 63 1020.3
20260506152318 61 154 0.0 0.0 0.00 0.00 0.00 64 1020.3
20260506151818 61 37 0.0 0.0 0.00 0.00 0.00 65 1020.3
20260506151317 60 253 0.0 0.0 0.00 0.00 0.00 66 1020.3
20260506150821 59 31 0.0 0.0 0.00 0.00 0.00 66 1020.3
20260506150317 59 309 1.0 0.0 0.00 0.00 0.00 66 1020.3
20260506145817 58 63 2.0 0.0 0.00 0.00 0.00 67 1020.3
20260506145318 58 115 2.0 0.0 0.00 0.00 0.00 70 1020.3
20260506144818 57 347 0.0 0.0 0.00 0.00 0.00 72 1020.3
20260506144317 55 328 0.0 0.0 0.00 0.00 0.00 74 1020.3
20260506143818 55 335 0.0 0.0 0.00 0.00 0.00 74 1020.3
20260506143315 54 336 0.0 0.0 0.00 0.01 0.00 76 1020.3
20260506142817 54 46 0.0 0.0 0.00 0.01 0.00 76 1020.3
20260506142316 54 4 0.0 0.0 0.00 0.01 0.00 75 1020.3
20260506141817 55 22 0.0 0.0 0.00 0.01 0.00 74 1020.3
20260506141314 54 31 0.0 0.0 0.00 0.01 0.00 72 1020.3
20260506140817 54 117 0.0 0.0 0.00 0.01 0.00 76 1020.3
20260506140316 53 49 0.0 0.0 0.00 0.01 0.00 77 1020.3
20260506135816 53 111 0.0 0.0 0.00 0.01 0.00 78 1020.0
20260506135315 52 124 0.0 0.0 0.00 0.01 0.00 80 1020.0
20260506134815 52 154 0.0 0.0 0.00 0.01 0.00 82 1020.0
20260506134315 51 114 0.0 0.0 0.00 0.01 0.00 84 1020.0
20260506133815 50 104 0.0 0.0 0.00 0.01 0.00 86 1020.0
20260506133313 50 229 0.0 0.0 0.00 0.01 0.00 88 1020.0
20260506132815 49 272 0.0 0.0 0.00 0.01 0.00 88 1019.6
20260506132313 48 235 0.0 0.0 0.00 0.01 0.00 88 1019.6
20260506131814 48 236 0.0 0.0 0.00 0.01 0.00 88 1019.6
20260506131313 48 283 0.0 0.0 0.00 0.01 0.00 88 1019.6
20260506130812 48 234 2.0 0.0 0.00 0.01 0.00 89 1019.6
20260506130312 48 249 4.0 0.0 0.00 0.01 0.00 88 1019.6
20260506125812 48 268 4.0 0.0 0.00 0.01 0.00 88 1019.6
20260506125315 48 261 0.0 0.0 0.00 0.01 0.00 89 1019.6
20260506124814 48 205 0.0 0.0 0.00 0.01 0.00 89 1019.6
20260506124313 48 226 0.0 0.0 0.00 0.01 0.00 89 1019.6
20260506123811 48 231 0.0 0.0 0.00 0.01 0.00 89 1019.3
20260506123313 48 182 0.0 0.0 0.00 0.01 0.00 89 1019.3
20260506122811 48 252 0.0 0.0 0.00 0.01 0.00 89 1019.3
20260506122312 48 274 0.0 0.0 0.00 0.01 0.00 89 1019.3
20260506121811 48 207 0.0 0.0 0.00 0.01 0.00 89 1019.3
20260506121313 48 216 0.0 0.0 0.00 0.01 0.00 89 1019.3
20260506120810 48 224 0.0 0.0 0.00 0.01 0.00 89 1019.3
20260506120314 47 222 0.0 0.0 0.00 0.01 0.00 89 1019.3
20260506115812 47 247 0.0 0.0 0.00 0.01 0.00 87 1019.3
20260506115314 47 286 0.0 0.0 0.00 0.01 0.00 88 1019.3
20260506114811 48 274 0.0 0.0 0.00 0.01 0.00 89 1019.3
20260506114309 47 247 0.0 0.0 0.00 0.01 0.00 89 1019.3
20260506113813 46 233 0.0 0.0 0.00 0.01 0.00 87 1019.3
20260506113313 47 294 0.0 0.0 0.00 0.01 0.00 86 1019.3
20260506112812 47 292 0.0 0.0 0.00 0.01 0.00 86 1019.3
20260506112312 47 293 0.0 0.0 0.00 0.01 0.00 86 1019.3
20260506111813 47 304 0.0 0.0 0.00 0.01 0.00 85 1019.3
20260506111311 47 292 0.0 0.0 0.00 0.01 0.00 84 1019.3
20260506110814 48 318 0.0 0.0 0.00 0.01 0.00 84 1019.3
20260506110310 48 269 0.0 0.0 0.00 0.01 0.00 84 1019.3
20260506105811 48 282 0.0 0.0 0.00 0.01 0.00 83 1019.3
20260506105314 49 266 0.0 0.0 0.00 0.01 0.00 83 1019.3
20260506104813 49 309 0.0 0.0 0.00 0.01 0.00 83 1019.3
20260506104313 50 297 0.0 0.0 0.00 0.01 0.00 83 1019.3
20260506103811 50 293 0.0 0.0 0.00 0.01 0.00 84 1019.3
20260506103313 50 218 0.0 0.0 0.00 0.01 0.00 84 1019.3
20260506102812 50 252 0.0 0.0 0.00 0.01 0.00 84 1019.0
20260506102312 50 293 0.0 0.0 0.00 0.01 0.00 84 1019.3
20260506101810 50 255 3.0 0.0 0.00 0.01 0.00 84 1019.0
20260506101313 50 236 4.0 0.0 0.00 0.01 0.00 85 1019.0
20260506100812 50 248 4.0 0.0 0.00 0.01 0.00 85 1019.0
20260506100311 50 245 2.0 0.0 0.00 0.01 0.00 85 1019.0
20260506095828 50 246 3.0 0.0 0.00 0.01 0.00 84 1019.0
20260506095329 50 154 3.0 0.0 0.00 0.01 0.00 84 1019.0
20260506094828 50 205 4.0 0.0 0.00 0.02 0.00 84 1019.0
20260506094329 50 235 4.0 0.0 0.00 0.02 0.00 84 1019.0
20260506093829 50 296 3.0 0.0 0.00 0.02 0.00 84 1019.0
20260506093328 50 326 3.0 0.0 0.00 0.02 0.00 83 1019.0
20260506092831 50 306 3.0 0.0 0.00 0.02 0.00 83 1019.0
20260506092330 50 303 4.0 0.0 0.00 0.02 0.00 82 1019.0
20260506091827 50 305 4.0 0.0 0.00 0.02 0.00 82 1019.3
20260506091327 51 306 0.0 0.0 0.00 0.02 0.00 82 1019.3
20260506090827 51 4 0.0 0.0 0.00 0.02 0.00 82 1019.3
20260506090328 51 358 4.0 0.0 0.00 0.02 0.00 82 1019.3
20260506085829 51 147 3.0 0.0 0.00 0.02 0.00 81 1019.3
20260506085328 51 291 4.0 0.0 0.00 0.02 0.00 81 1019.3
20260506084827 51 284 0.0 0.0 0.00 0.02 0.00 81 1019.3
20260506084326 51 271 1.0 0.0 0.00 0.02 0.00 81 1019.3
20260506083825 52 163 6.0 0.0 0.00 0.02 0.00 81 1019.3
20260506083325 52 46 6.0 0.0 0.00 0.02 0.00 81 1019.3
20260506082826 52 276 5.0 0.0 0.00 0.02 0.00 81 1019.6
20260506082328 52 87 6.0 0.0 0.00 0.02 0.00 81 1019.6
20260506081827 52 132 5.0 0.0 0.00 0.02 0.00 81 1019.6
20260506081325 52 100 8.0 0.0 0.00 0.02 0.00 81 1019.6
20260506080825 52 112 8.0 0.0 0.00 0.02 0.00 81 1019.6
20260506080328 52 93 4.0 0.0 0.00 0.02 0.00 81 1019.6
20260506073322 53 100 0.0 0.0 0.00 0.03 0.00 79 1019.6
20260506072822 53 122 3.0 0.0 0.00 0.03 0.00 79 1019.6
20260506072324 54 113 9.0 0.0 0.00 0.03 0.00 79 1019.6
20260506071824 54 116 9.0 0.0 0.00 0.03 0.00 79 1019.6
20260506071322 54 122 9.0 0.0 0.00 0.03 0.00 79 1019.6
20260506070824 54 118 10.0 0.0 0.00 0.03 0.00 79 1019.6
20260506070322 54 172 10.0 0.0 0.00 0.03 0.00 79 1019.6
20260506062322 55 89 10.0 0.0 0.00 0.03 0.03 77 1019.3
20260506061824 55 164 10.0 0.0 0.00 0.03 0.03 78 1019.3
20260506061322 55 125 10.0 0.0 0.00 0.03 0.03 78 1019.3
20260506060820 55 155 10.0 0.0 0.00 0.03 0.03 78 1019.3
20260506060323 55 114 10.0 0.0 0.00 0.03 0.03 78 1019.3
20260506051318 56 139 10.0 0.0 0.00 0.03 0.03 75 1018.6
20260506050738 56 197 9.0 0.0 0.00 0.03 0.03 75 1018.6
20260506050319 56 81 9.0 0.0 0.00 0.03 0.03 74 1018.6
20260506044818 56 329 9.0 0.0 0.00 0.03 0.03 73 1018.3
20260506044318 56 125 11.0 0.0 0.00 0.03 0.03 73 1018.3
20260506043739 56 141 10.0 0.0 0.00 0.03 0.03 72 1018.3
20260506043319 56 121 9.0 0.0 0.00 0.03 0.03 72 1018.3
20260506042818 57 346 9.0 0.0 0.00 0.03 0.03 71 1018.3
20260506042315 57 141 9.0 0.0 0.00 0.03 0.03 71 1017.9
20260506041816 57 118 6.0 0.0 0.00 0.03 0.03 70 1017.9
20260506041317 57 343 6.0 0.0 0.00 0.03 0.03 70 1017.6
20260506040816 57 120 6.0 0.0 0.00 0.03 0.03 70 1017.6
20260506040317 57 15 9.0 0.0 0.00 0.03 0.03 69 1017.6
20260506035819 57 114 10.0 0.0 0.00 0.03 0.03 69 1017.6
20260506035316 57 97 9.0 0.0 0.00 0.03 0.03 68 1017.3
20260506034815 57 129 10.0 0.0 0.00 0.03 0.03 68 1017.3
20260506034238 57 156 8.0 0.0 0.00 0.03 0.03 67 1017.3
20260506033817 57 55 8.0 0.0 0.00 0.03 0.03 67 1017.3
20260506033315 57 107 8.0 0.0 0.00 0.03 0.03 67 1017.3
20260506032815 57 337 9.0 0.0 0.00 0.03 0.03 66 1017.3
20260506032315 57 153 11.0 0.0 0.00 0.03 0.03 66 1017.3
20260506031816 58 117 11.0 0.0 0.00 0.03 0.03 65 1017.3
20260506031314 58 122 7.0 0.0 0.00 0.03 0.03 65 1017.3
20260506030814 58 168 9.0 0.0 0.00 0.03 0.03 64 1016.9
20260506030236 58 56 5.0 0.0 0.00 0.03 0.03 63 1016.9
20260506025816 58 106 7.0 0.0 0.00 0.03 0.03 63 1016.9
20260506025313 58 84 4.0 0.0 0.00 0.03 0.03 63 1016.6
20260506024813 58 116 6.0 0.0 0.00 0.03 0.03 63 1016.6
20260506024313 58 160 7.0 0.0 0.00 0.03 0.03 62 1016.6
20260506023813 58 30 8.0 0.0 0.00 0.03 0.03 62 1016.6
20260506023315 58 294 8.0 0.0 0.00 0.03 0.03 62 1016.3
20260506022812 59 153 10.0 0.0 0.00 0.03 0.03 61 1016.3
20260506022313 59 196 9.0 0.0 0.00 0.03 0.03 61 1016.3
20260506021814 59 216 8.0 0.0 0.00 0.03 0.03 61 1016.3
20260506021312 59 117 8.0 0.0 0.00 0.03 0.03 60 1016.3
20260506020737 59 108 8.0 0.0 0.00 0.03 0.03 60 1016.3
20260506020313 59 145 8.0 0.0 0.00 0.03 0.03 60 1015.9
20260506015812 59 109 8.0 0.0 0.00 0.03 0.03 59 1015.9
20260506015312 60 112 8.0 0.0 0.00 0.03 0.03 59 1015.6
20260506014811 60 214 8.0 0.0 0.00 0.03 0.03 59 1015.6
20260506014312 60 340 10.0 0.0 0.00 0.03 0.03 59 1015.6
20260506013813 60 103 9.0 0.0 0.00 0.03 0.03 59 1015.6
20260506013312 60 67 8.0 0.0 0.00 0.03 0.03 59 1015.6
20260506012812 60 122 8.0 0.0 0.00 0.03 0.03 59 1015.6
20260506012315 60 117 8.0 0.0 0.00 0.03 0.03 59 1015.2
20260506011815 60 223 8.0 0.0 0.00 0.03 0.03 59 1015.2
20260506011314 60 151 8.0 0.0 0.00 0.03 0.03 58 1015.2
20260506010810 60 115 9.0 0.0 0.00 0.03 0.03 58 1015.2
20260506010342 60 177 9.0 0.0 0.00 0.03 0.03 58 1015.2
20260506010112 60 238 9.0 0.0 0.00 0.03 0.03 58 1015.2
20260506005314 60 259 8.0 0.0 0.00 0.03 0.03 58 1015.2
20260506004740 60 191 12.0 0.0 0.00 0.03 0.03 58 1015.2
20260506004310 60 123 9.0 0.0 0.00 0.03 0.03 57 1015.2
20260506003812 60 108 11.0 0.0 0.00 0.03 0.03 56 1015.2
20260506003314 61 77 12.0 0.0 0.00 0.03 0.03 56 1015.2
20260506002813 61 167 9.0 0.0 0.00 0.03 0.03 55 1015.2
20260506002239 61 150 9.0 0.0 0.00 0.03 0.03 54 1015.2
20260506001814 61 105 9.0 0.0 0.00 0.03 0.03 54 1015.2
20260506001313 61 116 9.0 0.0 0.00 0.03 0.03 53 1015.2
20260506000742 61 153 11.0 0.0 0.00 0.03 0.03 53 1015.2
20260506000311 62 140 12.0 0.0 0.00 0.03 0.03 53 1015.2
20260505235813 62 144 12.0 0.0 0.00 0.03 0.03 53 1015.2
20260505235311 62 174 11.0 0.0 0.00 0.03 0.03 52 1015.2
20260505234814 62 131 9.0 0.0 0.00 0.03 0.03 52 1015.2
20260505234311 63 154 11.0 0.0 0.00 0.03 0.03 52 1014.9
20260505233811 63 251 11.0 0.0 0.00 0.03 0.03 51 1014.9
20260505233313 64 112 9.0 0.0 0.00 0.03 0.03 51 1014.9
20260505232815 65 250 12.0 0.0 0.00 0.03 0.03 49 1014.9
20260505232309 66 306 12.0 0.0 0.00 0.03 0.03 48 1014.9
20260505231812 67 164 11.0 0.0 0.00 0.03 0.03 46 1014.9
20260505231310 67 230 10.0 0.0 0.00 0.03 0.03 48 1014.9
20260505230811 66 133 8.0 0.0 0.00 0.03 0.03 49 1014.9
20260505230314 65 150 9.0 0.0 0.00 0.03 0.03 50 1015.2
20260505225813 64 72 15.0 0.0 0.00 0.03 0.03 51 1015.2
20260505225311 63 124 15.0 0.0 0.00 0.03 0.03 51 1015.2
20260505224811 63 194 11.0 0.0 0.00 0.03 0.03 51 1015.2
20260505224310 64 166 9.0 0.0 0.00 0.03 0.03 51 1015.2
20260505223811 65 171 9.0 0.0 0.00 0.03 0.03 49 1015.2
20260505223238 65 137 9.0 0.0 0.00 0.03 0.03 50 1015.2
20260505222737 64 75 9.0 0.0 0.00 0.03 0.03 52 1015.2